[Date Prev][Date Next][Thread Prev][Thread Next] - [Date Index][Thread Index][Author Index]

2 Line ISS Keps 5-23



ISS
1 25544U 98067A   02143.21460404  .00026681  00000-0  33192-3 0  4798
2 25544  51.6359 178.4990 0006606 104.6649 299.7372 15.59736205200135


----
Via the sarex mailing list at AMSAT.ORG courtesy of AMSAT-NA.
To unsubscribe, send "unsubscribe sarex" to Majordomo@amsat.org



AMSAT Top AMSAT Home